This is the latest recevied weather packets stored in our database for station/object VK6JI-11. If no packets are shown the sender has not sent any weather packets the latest 10 day(s).
| Time | Temp. | Humidity | Pressure | Rain* | Wind** | Luminosity | Snow |
|---|---|---|---|---|---|---|---|
| 1778231028 | 22.22° C | 47% | 1024.8 hPa | 0 mm | - | 23 W/m² | - |
| 1778230907 | 22.22° C | 47% | 1024.7 hPa | 0 mm | - | 25 W/m² | - |
| 1778230787 | 22.22° C | 47% | 1024.8 hPa | 0 mm | - | 26 W/m² | - |
| 1778230667 | 22.22° C | 47% | 1024.7 hPa | 0 mm | - | 26 W/m² | - |
| 1778230547 | 22.22° C | 46% | 1024.8 hPa | 0 mm | - | 30 W/m² | - |
| 1778230427 | 22.22° C | 46% | 1024.6 hPa | 0 mm | - | 58 W/m² | - |
| 1778230307 | 22.22° C | 46% | 1024.7 hPa | 0 mm | - | 41 W/m² | - |
| 1778230188 | 22.22° C | 46% | 1024.7 hPa | 0 mm | - | 32 W/m² | - |
| 1778230068 | 22.22° C | 46% | 1024.7 hPa | 0 mm | - | 35 W/m² | - |
| 1778229947 | 22.22° C | 46% | 1024.6 hPa | 0 mm | - | 30 W/m² | - |
| 1778229827 | 22.22° C | 46% | 1024.6 hPa | 0 mm | - | 28 W/m² | - |
| 1778229708 | 22.22° C | 46% | 1024.7 hPa | 0 mm | - | 28 W/m² | - |
| 1778229588 | 22.22° C | 46% | 1024.6 hPa | 0 mm | - | 28 W/m² | - |
| 1778229467 | 22.78° C | 46% | 1024.6 hPa | 0 mm | - | 28 W/m² | - |
| 1778229347 | 22.78° C | 46% | 1024.6 hPa | 0 mm | - | 35 W/m² | - |
| 1778229216 | 22.78° C | 46% | 1024.6 hPa | 0 mm | - | 35 W/m² | - |
| 1778229096 | 22.78° C | 46% | 1024.5 hPa | 0 mm | - | 37 W/m² | - |
| 1778228976 | 22.78° C | 46% | 1024.6 hPa | 0 mm | - | 32 W/m² | - |
| 1778228855 | 22.78° C | 45% | 1024.6 hPa | 0 mm | - | 32 W/m² | - |
| 1778228735 | 22.78° C | 45% | 1024.5 hPa | 0 mm | - | 30 W/m² | - |
| 1778228614 | 22.78° C | 45% | 1024.6 hPa | 0 mm | - | 30 W/m² | - |
| 1778228493 | 22.78° C | 44% | 1024.7 hPa | 0 mm | - | 30 W/m² | - |
| 1778228373 | 22.78° C | 44% | 1024.7 hPa | 0 mm | - | 32 W/m² | - |
| 1778228252 | 22.78° C | 44% | 1024.7 hPa | 0 mm | - | 32 W/m² | - |
| 1778228132 | 22.78° C | 43% | 1024.6 hPa | 0 mm | - | 33 W/m² | - |
* Rain latest hour (hover to see other rain measurements)
** Current wind speed in m/s (hover to see current wind gust speed)